Location: Mohawk View
(42.7837°N, 73.7885°W)
Time: 00:47:49
(UTC+00:00)

ADEOS II - Pass Details

Date: 17 June 2021
Orbit: 799 x 800 km, 98.6° (Epoch: 02 August)

Event Time Altitude Azimuth Distance (km) Brightness Sun altitude
Rises 06:09:38 0° 25° (NNE) 3,319 6.8 -21.7°
Reaches altitude 10° 06:12:23 10° 39° (NE) 2,383 5.5 -21.5°
Maximum altitude 06:16:42 25° 94° (E) 1,555 3.7 -21.3°
Enters shadow 06:19:32 17° 137° (SE) 1,951 3.8 -21.1°
